Regional Weather Roundup
Issued by NWS

Home | Current Version | Previous Version | Graphics & Text | Print | Product List | Glossary On
Versions: 1 2 3 4 5 6 7 8 9 10 11 12 13 14 15 16 17 18 19 20 21 22 23 24 25 26 27 28 29 30 31 32 33 34 35 36 37 38 39 40 41 42 43 44 45 46 47 48 49 50
000
ASUS45 KTFX 161610
RWRMT
MONTANA REGIONAL WEATHER ROUNDUP
NATIONAL WEATHER SERVICE GREAT FALLS MT
900 AM MST SAT DEC 16 2017

NOTE: "FAIR" INDICATES FEW OR NO CLOUDS BELOW 12000 FEET WITH NO
SIGNIFICANT WEATHER AND/OR OBSTRUCTIONS TO VISIBILITY.

MTZ001>007-043-161700-
WEST OF THE DIVIDE

CITY           SKY/WX    TMP DP  RH WIND       PRES   REMARKS
KALISPELL      CLOUDY    26  25  96 CALM      30.06R
MISSOULA       CLOUDY    28  27  96 NW5       30.06R
BUTTE          LGT SNOW  26  21  81 W6        29.94R WCI  19
MULLAN PASS    HAZE      18  13  80 VRB5      29.96R VSB 3/4
ANACONDA         N/A     27  25  93 NE3       29.96R
DEER LODGE       N/A     27  25  93 NE7       29.99R WCI  19
EUREKA           N/A     25  23  93 MISG      30.11R
HAMILTON         N/A     28  28 100 CALM      30.05R
LIBBY            N/A     23  23 100 CALM      30.11R
PLAINS           N/A     27  23  84 CALM      30.11R
RONAN            N/A     27  25  92 CALM      30.09R
$$

MTZ008-052>055-161700-
SOUTHWEST MONTANA

CITY           SKY/WX    TMP DP  RH WIND       PRES   REMARKS
BOZEMAN        LGT SNOW  30  28  92 SW3       29.93R VSB 1
DILLON         LGT SNOW  26  24  92 CALM      29.92R FOG
W YELLOWSTONE  FAIR      23  21  93 SW6       29.85S FOG     WCI  16
ENNIS          LGT SNOW  28  28 100 NW8       29.94R WCI  20
THREE FORKS      N/A     28  27  96 CALM      29.94R VSB 1
TWIN BRIDGES     N/A     31  22  69 N1        29.92R
$$

MTZ009-010-012-014-046-048-049-054-161700-
EAST SLOPES AND CENTRAL MONTANA

CITY           SKY/WX    TMP DP  RH WIND       PRES   REMARKS
CUT BANK       SNOW      27  26  96 SE7       29.97R VSB 1/2 WCI  19
GREAT FALLS    CLOUDY    29  26  89 E8        29.97R FOG     WCI  21
MALMSTROM AFB  SNOWSHWR  28  28 100 NW3       29.99R
HELENA         FAIR      31  26  82 CALM      29.95R
BOWMANS CRNR   FOG       25  25 100 CALM      29.92R VSB 1
CHOTEAU          N/A     28  27  93 E8        29.98R WCI  20
FAIRFIELD      MOCLDY    26  25  94 E6        29.96R WCI  20
POWER          LGT SNOW  27  26  97 E8        29.96R WCI  19
RAYNESFORD     FLURRIES  29  25  87 SE9       29.95R WCI  20
ULM            FLURRIES  30  27  88 NE7       29.97R WCI  23
$$

MTZ011-013-016-021-045-047-050-051-161700-
NORTH CENTRAL MONTANA

CITY           SKY/WX    TMP DP  RH WIND       PRES   REMARKS
HAVRE          CLOUDY    28  27  96 SW6       30.00R WCI  22
LEWISTOWN      CLOUDY    30  26  85 N5        29.96R
N BAR RANCH    CLOUDY    30  21  69 CALM      29.97R
CHINOOK          N/A     28  28 100 SW5       30.00R
DENTON         CLOUDY    29  26  90 SW6       29.94R WCI  23
GEYSER         SNOWSHWR  28  26  94 CALM      29.96R
GRASS RANGE    MOCLDY    29  24  80 CALM      29.93R
STANFORD       LGT SNOW  26  26  99 CALM      29.95R FOG
WINIFRED       CLOUDY    29  28  96 SW5       29.96R
$$

MTZ017>020-022>027-061-062-161700-
NORTHEAST MONTANA

CITY           SKY/WX    TMP DP  RH WIND       PRES   REMARKS
GLASGOW        CLOUDY    23  21  92 NW6       29.97R WCI  16
GLENDIVE       FAIR      29  24  82 NW12      29.95R WCI  19
JORDAN           N/A     30  26  85 W5        29.97R
SIDNEY         FAIR      29  23  78 NW15      29.94R WCI  18
WOLF POINT     FAIR      23  19  85 SW10      29.97R WCI  12
MALTA          CLOUDY    30  28  93 W7        29.97S WCI  23
PLENTYWOOD       N/A     25  19  80 NW9       29.90S WCI  15
POPLAR           N/A     21  18  86 SW6       29.97R WCI  14
$$

MTZ028>42-056>058-161700-
SOUTHCENTRAL AND SOUTHEAST MONTANA

CITY           SKY/WX    TMP DP  RH WIND       PRES   REMARKS
BAKER          FAIR      30  28  92 W8        29.94R WCI  22
BILLINGS       LGT SNOW  30  30 100 NE7       29.97R VSB 1   WCI  23
LIVINGSTON     LGT SNOW  31  31 100 SE6       29.90R VSB 3/4 WCI  25
MILES CITY     CLOUDY    31  28  89 W6        29.98R WCI  25
BIG TIMBER     FOG       30  30 100 E8        29.94R VSB 1/4 WCI  23
FORSYTH          N/A     34  30  86 CALM      29.99R
LAUREL           N/A     30  28  93 E10       29.98R FOG     WCI  21
ROUNDUP          N/A     30  25  82 CALM      29.89
$$

REGIONAL REPORTS...DAKOTAS

CITY           SKY/WX    TMP DP  RH WIND       PRES   REMARKS
WILLISTON      FAIR      27  20  75 S5        29.93R
MINOT          CLOUDY    37  30  75 W20       29.85R WCI  27
DICKINSON      FAIR      29  25  85 NW9       29.89R WCI  20
BEACH          FAIR      27  25  93 NW10      29.96R WCI  17
CROSBY         FAIR      27  23  86 W12       29.90R WCI  16
TIOGA          FAIR      27  27 100 W15       29.90R WCI  15
WATFORD CITY   FAIR      28  25  86 SW5       29.92R
BISMARCK       CLOUDY    37  33  85 NW9       29.89R WCI  30
GRAND FORKS    CLOUDY    22  19  89 SW6       29.85R WCI  14
FARGO          CLOUDY    28  23  81 S6        29.86R WCI  22
BUFFALO SD       N/A     31  27  85 NW15      29.86R WCI  20
RAPID CITY     LGT SNOW  34  31  88 N12       29.93R FOG     WCI  25
$$

REGIONAL REPORTS...WYOMING/IDAHO/WASHINGTON

CITY           SKY/WX    TMP DP  RH WIND       PRES   REMARKS
GILLETTE       LGT SNOW  30  28  92 N10       29.92R FOG     WCI  21
SHERIDAN       LGT SNOW  32  32 100 NE7       29.93R VSB 3/4 WCI  26
BUFFALO WY     SNOW      32  28  85 N5        29.91R VSB 1/2
CODY           LGT SNOW  32  30  93 N5        29.88S VSB 3/4
YELLOWSTONE LA   N/A     20  18  92 CALM      29.85S
IDAHO FALLS    LGT SNOW  23  22  96 S9        29.95F FOG     WCI  13
SALMON         CLOUDY    21  19  92 CALM      30.04R
BOISE          CLOUDY    23  21  92 W7        30.10S WCI  15
SPOKANE        FOG       25  25 100 CALM      30.19R VSB 1/4
$$

REGIONAL REPORTS...ALBERTA

CITY           SKY/WX    TMP DP  RH WIND       PRES   REMARKS
EDMONTON       CLEAR     27  14  59 W12G18    29.88R WCI  16
CALGARY        PTCLDY    21   9  58 VRB3      29.94R
LETHBRIDGE     LGT SNOW  30  28  93 SE6       30.00  WCI  24
MEDICINE HAT   CLOUDY    27  23  86 SW6       29.98S WCI  20
$$

REGIONAL REPORTS...SASKATCHEWAN

CITY           SKY/WX    TMP DP  RH WIND       PRES   REMARKS
SWIFT CURRENT  CLEAR     19  14  79 W14       29.88R WCI   6
REGINA         PTCLDY    25  19  80 W12       29.84R WCI  14
SASKATOON      PTCLDY    23  18  80 SW13G23   29.80R WCI  11
$$



USA.gov is the U.S. government's official web portal to all federal, state and local government web resources and services.